Juneau, AK

12:54 PM AKST on November 21, 2017 (GMT -0900)
Juneau International

Weather History for PAJN - August, 2013

Change the Weather History Date:

Thursday, August 15, 2013

  Actual Average Record
Temperature  
Mean Temperature 63 °F 56 °F  
Max Temperature 73 °F 63 °F 83 °F (2004)
Min Temperature 52 °F 49 °F 35 °F (1946)
Degree Days  
Heating Degree Days 2 9  
Month to date heating degree days 61 120  
Since 1 June heating degree days 497 686  
Since 1 July heating degree days 283 371  
Cooling Degree Days 0 0  
Month to date cooling degree days 0 0  
Year to date cooling degree days 9 2  
Since 1 June cooling degree days 9 2  
Growing Degree Days 14 (Base 50)    
Moisture  
Dew Point 55 °F    
Average Humidity 81    
Maximum Humidity 100    
Minimum Humidity 61    
Precipitation  
Precipitation 0.37 in 0.17 in 1.05 in (2011)
Month to date precipitation 1.33 2.44  
Year to date precipitation 37.34 29.88  
Sea Level Pressure  
Sea Level Pressure 29.82 in    
Wind  
Wind Speed 7 mph (SE)    
Max Wind Speed 20 mph    
Max Gust Speed 25 mph    
Visibility 9 miles    
Events Rain    
T = Trace of Precipitation, MM = Missing Value Source: NWS Daily Summary

Daily Weather History Graph

Daily Weather History Graph

Search for Another Location

Airport or City:

Trip Planner

Search our weather history database for the weather conditions in past years. The results will help you decide how hot, cold, wet, or windy it might be!

Date:

Astronomy

Aug. 15, 2013 Rise Set
Actual Time 5:20 AM AKDT 8:42 PM AKDT
Civil Twilight 4:33 AM AKDT 9:30 PM AKDT
Nautical Twilight 3:26 AM AKDT 10:35 PM AKDT
Astronomical Twilight 1:35 AM AKDT 12:54 AM AKDT
Moon 4:35 PM AKDT (8/15) No Moon Set
Length of Visible Light 16h 56m
Length of Day
15h 21m
Waxing Gibbous, 66% of the Moon is Illuminated
Aug 15
Waxing Gibbous
Aug 20
Full
Aug 28
Last Quarter
Sep 5
New
Sep 12
First Quarter

Hourly Weather History & Observations

Time (AKDT) Temp. Dew Point Humidity Pressure Visibility Wind Dir Wind Speed Gust Speed Precip Events Conditions
12:53 AM 57.0 °F 53.1 °F 87% 29.83 in 10.0 mi Calm Calm - N/A   Mostly Cloudy
1:53 AM 55.9 °F 53.1 °F 90% 29.82 in 10.0 mi SW 3.5 mph - N/A   Scattered Clouds
2:53 AM 55.0 °F 53.1 °F 93% 29.82 in 10.0 mi ESE 4.6 mph - N/A   Mostly Cloudy
3:53 AM 55.0 °F 51.1 °F 86% 29.82 in 10.0 mi SW 5.8 mph - N/A   Scattered Clouds
4:53 AM 54.0 °F 50.0 °F 86% 29.81 in 10.0 mi Calm Calm - N/A   Mostly Cloudy
5:53 AM 54.0 °F 51.1 °F 90% 29.81 in 10.0 mi Calm Calm - N/A   Mostly Cloudy
6:53 AM 54.0 °F 50.0 °F 86% 29.81 in 10.0 mi Calm Calm - N/A   Mostly Cloudy
7:53 AM 57.9 °F 52.0 °F 81% 29.81 in 10.0 mi Calm Calm - N/A   Mostly Cloudy
8:53 AM 59.0 °F 54.0 °F 83% 29.81 in 10.0 mi WSW 6.9 mph - N/A   Mostly Cloudy
9:53 AM 63.0 °F 57.0 °F 81% 29.81 in 10.0 mi West 6.9 mph - N/A   Mostly Cloudy
10:53 AM 64.0 °F 55.9 °F 75% 29.80 in 10.0 mi SW 9.2 mph - N/A   Mostly Cloudy
11:53 AM 66.0 °F 55.9 °F 70% 29.79 in 10.0 mi WSW 9.2 mph - N/A   Mostly Cloudy
12:53 PM 70.0 °F 57.0 °F 63% 29.80 in 10.0 mi West 10.4 mph - N/A   Scattered Clouds
1:53 PM 72.0 °F 57.0 °F 59% 29.80 in 10.0 mi WSW 6.9 mph - N/A   Scattered Clouds
2:53 PM 70.0 °F 57.0 °F 63% 29.80 in 10.0 mi WSW 6.9 mph - N/A   Overcast
3:53 PM 69.1 °F 57.9 °F 68% 29.81 in 10.0 mi Calm Calm - N/A   Overcast
4:53 PM 66.9 °F 57.0 °F 70% 29.81 in 10.0 mi ESE 13.8 mph 25.3 mph N/A   Overcast
5:53 PM 64.0 °F 57.0 °F 78% 29.82 in 10.0 mi ESE 15.0 mph 23.0 mph 0.00 in   Overcast
6:53 PM 62.1 °F 57.0 °F 84% 29.83 in 10.0 mi East 12.7 mph - 0.00 in   Overcast
7:45 PM 60.1 °F 57.0 °F 90% 29.84 in 7.0 mi East 13.8 mph 23.0 mph 0.00 in Rain Light Rain
7:53 PM 59.0 °F 57.0 °F 93% 29.84 in 8.0 mi East 12.7 mph - 0.00 in Rain Light Rain
8:53 PM 57.9 °F 57.0 °F 97% 29.86 in 4.0 mi East 9.2 mph - 0.18 in Rain Light Rain
9:53 PM 57.9 °F 57.0 °F 97% 29.86 in 6.0 mi East 10.4 mph - 0.05 in Rain Light Rain
10:22 PM 57.9 °F 57.0 °F 97% 29.86 in 9.0 mi East 10.4 mph - 0.01 in Rain Light Rain
10:43 PM 57.9 °F 57.0 °F 97% 29.86 in 8.0 mi East 10.4 mph - 0.03 in Rain Light Rain
10:53 PM 57.9 °F 57.0 °F 97% 29.86 in 6.0 mi East 10.4 mph - 0.04 in Rain Rain
11:53 PM 57.9 °F 57.0 °F 97% 29.86 in 7.0 mi East 12.7 mph - 0.04 in Rain Light Rain